[ hide orbit diagram ]
For accurate long-term ephemerides, please instead use our Horizons system.This orbit viewer was implemented using two-body methods, and hence should not be used for determining accurate long-term trajectories (over several years or decades) or planetary encounter circumstances.
Orbital Elements at Epoch 2459000.5 (2020-May-31.0) TDB
Reference: JPL 14 (heliocentric ecliptic J2000)
Element | Value | Uncertainty (1-sigma) | Units |
e | .04035775843768606 | 5.0792e-08 | |
a | 2.777047941613762 | 2.0845e-08 | au |
q | 2.664972511616241 | 1.3636e-07 | au |
i | 5.131057102276192 | 4.6832e-06 | deg |
node | 292.2255264529711 | 7.5627e-05 | deg |
peri | 355.8097378381403 | 0.00011534 | deg |
M | 60.53854786579431 | 8.8071e-05 | deg |
tp | 2458716.248351944451 (2019-Aug-20.74835194) | 0.00041313 | TDB |
period | 1690.337758461775 4.63 | 1.9032e-05 5.211e-08 | d yr |
n | .2129751868807591 | 2.398e-09 | deg/d |
Q | 2.889123371611283 | 2.1687e-08 | au |
|
| | Orbit Determination Parameters
Additional Information
|
[ show covariance matrix ]
Physical Parameter Table
Parameter |
Symbol |
Value |
Units |
Sigma |
Reference |
Notes |
absolute magnitude |
H |
15.6 |
|
n/a |
MPO432340 |
|
|
79104 (1981 EK33) Discovered 1981-Mar-01 by Bus, S. J. at Siding Spring |
Reference: 20040504/Numbers.arc | Last Updated: 2004-07-16 |
|
[ hide close-approach data ]
Close-Approach Data ...sorted by Date/Time (TDB)
|
Date/Time (TDB) |
Time Uncertainty (days_HH:MM) |
Body |
Nominal Distance (au) |
Minimum Distance (au) |
Maximum Distance (au) |
V-relative (km/s) |
V-infinity (km/s) |
JD (TDB) |
Time Uncertainty (minutes) |
Semi-major axis (km) |
Semi-minor axis (km) |
range-LOV angle (deg) |
N-sigma |
BP |
Orbit Ref. |
Reference |
Modified |
1907-Sep-15 19:20 |
00:15 |
Amphi |
0.028215038019802 |
0.0281937325117064 |
0.0282363539188018 |
2.29645573637763 |
2.29645564765502 |
2417834.305616997 |
14.9276520465964 |
1362.01809618447 |
52.5076758475142 |
38.8511484435075 |
50404.7003128496 |
T |
14 |
CATAB v2.0f-lin.ifort 2020-Dec-17 22:07:26 |
2020-Dec-17 22:07 |
2166-Sep-20 01:13 |
00:20 |
Iris |
0.0454041094314602 |
0.0453658735101804 |
0.0454423453615952 |
3.53174913855708 |
3.53174910270718 |
2512437.550388344 |
19.9425554028669 |
1905.14946593851 |
70.1753337457797 |
-0.182471750897092 |
3575.94535787425 |
T |
14 |
CATAB v2.0f-lin.ifort 2020-Dec-17 22:07:26 |
2020-Dec-17 22:07 |
|
|